Location: Songkhla
(7.2000°N, 100.6000°E)
Time: 23:43:13
(UTC+07:00)

ISS - Visible Passes

Search period start: 23 November 2017 00:00
Search period end: 03 December 2017 00:00
Orbit: 402 x 407 km, 51.6° (Epoch: 24 November)

Date Brightness Start Highest point End Pass type
(mag) Time Alt. Az. Time Alt. Az. Time Alt. Az.
23 Nov -0.8 19:07:11 10° WNW 19:08:03 11° NW 19:08:56 10° NW visible
24 Nov -3.6 05:01:16 35° NNW 05:02:25 65° NE 05:05:39 10° SE visible
24 Nov -1.8 18:12:56 10° WSW 18:15:45 26° NW 18:18:33 10° N visible
25 Nov -0.8 04:11:46 16° E 04:11:46 16° E 04:12:47 10° ESE visible
25 Nov -1.5 05:45:38 10° WSW 05:46:24 11° SW 05:47:10 10° SW visible
26 Nov -2.3 04:54:55 24° SSW 04:54:55 24° SSW 04:56:58 10° S visible
